Printer-friendly version

IAU Minor Planet Center

Minor Planet Center

MPEC 2006-K71 : 2006 KF89

The following Minor Planet Electronic Circular may be linked-to from your own Web pages, but must not otherwise be redistributed electronically.


Read MPEC 2006-K70 Read MPEC 2006-K72


M.P.E.C. 2006-K71                                Issued 2006 May 30, 04:19 UT

     The Minor Planet Electronic Circulars contain information on unusual
         minor planets and routine data on comets.  They are published
   on behalf of Commission 20 of the International Astronomical Union by the
          Minor Planet Center, Smithsonian Astrophysical Observatory,
                          Cambridge, MA 02138, U.S.A.

                  Supported in part by the Brinson Foundation
                  Supported in part by the TABASGO Foundation
             Prepared using the Tamkin Foundation Computer Network

                              MPC@CFA.HARVARD.EDU
          URL http://cfa-www.harvard.edu/iau/mpc.html  ISSN 1523-6714

                                   2006 KF89

Observations:
     K06K89F* C2006 05 28.28909 16 48 05.81 -16 43 42.3          18.7   EK071704
     K06K89F  C2006 05 28.30063 16 48 04.49 -16 42 57.1          18.7   EK071704
     K06K89F  C2006 05 28.31215 16 48 03.13 -16 42 11.5          19.3   EK071704
     K06K89F  C2006 05 28.33526 16 48 00.52 -16 40 39.5          18.7   EK071704
     K06K89F  C2006 05 29.21562 16 46 25.62 -15 41 55.7          18.5   EK071704
     K06K89F  C2006 05 29.22720 16 46 24.26 -15 41 09.9          18.9   EK071704
     K06K89F  C2006 05 29.23877 16 46 22.97 -15 40 22.5          18.8   EK071704
     K06K89F  C2006 05 29.25036 16 46 21.61 -15 39 36.7          18.7   EK071704
     K06K89F  C2006 05 29.26195 16 46 20.37 -15 38 50.8          18.9   EK071704
     K06K89F  C2006 05 29.27438 16 46 18.65 -15 38 01.1          19.0 R EK071734
     K06K89F  C2006 05 29.27515 16 46 18.57 -15 37 58.2          19.0 R EK071734
     K06K89F  C2006 05 29.27593 16 46 18.47 -15 37 54.7          18.7 R EK071734
     K06K89F  C2006 05 29.27748 16 46 18.27 -15 37 48.8          18.7 R EK071734
     K06K89F 5C2006 05 29.42281 16 46 01.96 -15 28 00.3          18.8 R EK071673
     K06K89F 5C2006 05 29.42847 16 46 01.31 -15 27 37.6                 EK071673
     K06K89F 5C2006 05 29.43358 16 46 00.72 -15 27 16.8                 EK071673
     K06K89F 5C2006 05 29.43958 16 46 00.03 -15 26 52.4                 EK071673
     K06K89F  C2006 05 29.88462 16 45 12.11 -14 56 52.2          18.2 V EK071A50
     K06K89F  C2006 05 29.88616 16 45 11.92 -14 56 45.7          18.4 V EK071A50
     K06K89F  C2006 05 29.88922 16 45 11.59 -14 56 33.2          18.5 V EK071A50
     K06K89F  C2006 05 29.89153 16 45 11.31 -14 56 24.7          18.2 V EK071A50

Observer details:
673 Table Mountain Observatory, Wrightwood.  Observer J. Young.  0.61-m f/16
    Cassegrain + CCD.
704 Lincoln Laboratory ETS, New Mexico.  Observers M. Bezpalko, L. Manguso,
    D. Torres, R. Kracke, M. Blythe, H. Love, G. Spitz.  Measurers J. Stuart,
    J. Kommers.  1.0-m f/2.15 reflector + CCD.
734 Farpoint Observatory.  Observer D. Tibbets.  0.7-m reflector + CCD.
A50 Andrushivka Astronomical Observatory.  Observers O. Gerashchenko,
    Y. Ivashchenko.  0.6-m reflector + CCD.

Orbital elements:
2006 KF89                                                Earth MOID = 0.4759 AU
Epoch 2006 Mar. 6.0 TT = JDT 2453800.5                  MPC
M 288.03382              (2000.0)            P               Q
n   0.38790336     Peri.   72.94832     +0.57186070     +0.59557984
a   1.8620315      Node   246.31491     -0.75820825     +0.64627733
e   0.3074138      Incl.   38.02722     +0.31320215     +0.47708518
P   2.54           H   18.7           G   0.15           U   9
Residuals in seconds of arc
060528 704  0.3+  0.5+    060529 704  0.3-  0.2-    060529 673  0.2+  0.1+
060528 704  0.3+  0.1-    060529 704  1.1+  0.9-    060529 673  0.1+  0.2+
060528 704  0.3-  0.2-    060529 734  0.4-  0.2-    060529 673  0.0   0.3+
060528 704  0.1+  0.1-    060529 734  0.3-  0.4-    060529 A50  0.2+  0.0
060529 704  0.1+  0.4+    060529 734  0.5-  0.0     060529 A50  0.0   0.3+
060529 704  0.4-  0.3-    060529 734  0.8-  0.4-    060529 A50  0.3+  0.3+
060529 704  0.1+  0.6+    060529 673  0.2+  0.4+    060529 A50  0.1+  0.5-

Ephemeris:
2006 KF89                a,e,i = 1.86, 0.31, 38                  q = 1.2896
Date    TT    R. A. (2000) Decl.     Delta      r     Elong.  Phase     V
2006 05 25    16 53.88   -20 15.0    0.531    1.537   168.8     7.3    18.8
2006 06 04    16 35.74   -09 01.3    0.494    1.499   166.4     9.2    18.7
2006 06 14    16 17.93   +02 32.0    0.496    1.463   149.0    20.9    19.0
2006 06 24    16 03.41   +12 24.5    0.529    1.429   132.7    31.5    19.4
2006 07 04    15 53.99   +19 44.9    0.583    1.397   119.2    39.4    19.8
2006 07 14    15 50.12   +24 48.9    0.646    1.369   108.8    44.7    20.1
2006 07 24    15 51.42   +28 12.2    0.711    1.344   100.7    48.0    20.4
2006 08 03    15 57.36   +30 26.2    0.773    1.323    94.5    49.9    20.6
2006 08 13    16 07.36   +31 53.9    0.827    1.307    89.9    50.8    20.8
2006 08 23    16 21.00   +32 49.2    0.872    1.296    86.6    51.2    20.9
2006 09 02    16 38.15   +33 20.9    0.908    1.290    84.4    51.1    20.9
2006 09 12    16 58.71   +33 34.6    0.934    1.290    83.3    50.8    21.0
2006 09 22    17 22.77   +33 31.9    0.952    1.295    82.9    50.3    21.0
2006 10 02    17 50.47   +33 13.3    0.963    1.306    83.3    49.6    21.0
2006 10 12    18 21.83   +32 37.7    0.971    1.321    84.3    48.7    21.1
2006 10 22    18 56.69   +31 42.6    0.979    1.341    85.6    47.7    21.1
2006 11 01    19 34.60   +30 26.8    0.992    1.366    87.0    46.5    21.1
2006 11 11    20 14.64   +28 51.1    1.015    1.394    88.1    45.2    21.2
2006 11 21    20 55.61   +26 59.0    1.052    1.425    88.6    43.9    21.3
2006 12 01    21 36.26   +24 58.6    1.105    1.459    88.3    42.5    21.4
2006 12 11    22 15.47   +22 59.3    1.176    1.495    87.1    41.1    21.5
2006 12 21    22 52.55   +21 09.2    1.265    1.533    85.0    39.7    21.7
2006 12 31    23 27.21   +19 34.6    1.369    1.572    82.1    38.3    21.9

Gareth V. Williams           (C) Copyright 2006 MPC           M.P.E.C. 2006-K71

Read MPEC 2006-K70 Read MPEC 2006-K72


Our Web policy. Index to the CBAT/MPC/ICQ pages.


Valid HTML 4.01!